Weather History for Plymouth, NH

Change the Weather History Date:

Friday, October 17, 2014

  Actual Average (KLCI) Record (KLCI)
Temperature  
Mean Temperature 57 °F -  
Max Temperature 68 °F 58 °F 75 °F (1999)
Min Temperature 46 °F 38 °F 30 °F (1997)
Degree Days  
Heating Degree Days 8    
Growing Degree Days 7 (Base 50)    
Moisture  
Dew Point 55 °F    
Average Humidity 89    
Maximum Humidity 100    
Minimum Humidity 54    
Precipitation  
Precipitation 0.10 in - - ()
Sea Level Pressure  
Sea Level Pressure 29.61 in    
Wind  
Wind Speed 3 mph (WSW)    
Max Wind Speed 16 mph    
Max Gust Speed 28 mph    
Visibility 7 miles    
Events Fog , Rain    
Averages and records for this station are not official NWS values.
T = Trace of Precipitation, MM = Missing Value Source: NWS Daily Summary

Daily Weather History Graph

Daily Weather History Graph

Search for Another Location

Airport:

Trip Planner

Search our weather history database for the weather conditions in past years. The results will help you decide how hot, cold, wet, or windy it might be!

Date:

Astronomy

Oct. 17, 2014 Rise Set
Actual Time 7:03 AM EDT 6:00 PM EDT
Civil Twilight 6:34 AM EDT 6:29 PM EDT
Nautical Twilight 6:01 AM EDT 7:02 PM EDT
Astronomical Twilight 5:28 AM EDT 7:35 PM EDT
Moon 12:54 AM EDT (10/17) 2:55 PM EDT (10/17)
Length of Visible Light 11h 54m
Length of Day
10h 56m
Waning Crescent, 33% of the Moon is Illuminated
Oct 17
Waning Crescent
Oct 23
New
Oct 30
First Quarter
Nov 6
Full
Nov 14
Last Quarter

Hourly Weather History & Observations

Time (EDT) Temp. Dew Point Humidity Pressure Visibility Wind Dir Wind Speed Gust Speed Precip Events Conditions
12:15 AM 63.3 °F 63.3 °F 100% 29.66 in 10.0 mi SE 4.6 mph - N/A   Scattered Clouds
12:35 AM 62.6 °F 62.6 °F 100% 29.63 in 10.0 mi Calm Calm - N/A   Scattered Clouds
12:55 AM 61.3 °F 61.3 °F 100% 29.63 in 10.0 mi Calm Calm - N/A   Scattered Clouds
1:35 AM 60.4 °F 60.4 °F 100% 29.64 in 7.0 mi SSW 5.8 mph - N/A   Scattered Clouds
1:55 AM 60.6 °F 60.6 °F 100% 29.65 in 10.0 mi Calm Calm - N/A   Clear
2:15 AM 59.5 °F 59.5 °F 100% 29.63 in 10.0 mi ENE 3.5 mph - N/A   Clear
2:35 AM 59.9 °F 59.9 °F 100% 29.61 in 10.0 mi Calm Calm - N/A   Scattered Clouds
3:15 AM 58.1 °F 58.1 °F 100% 29.64 in 10.0 mi Calm Calm - N/A   Scattered Clouds
3:35 AM 57.6 °F 57.6 °F 100% 29.62 in 10.0 mi Calm Calm - N/A   Mostly Cloudy
3:55 AM 57.4 °F 57.4 °F 100% 29.61 in 7.0 mi Calm Calm - N/A   Mostly Cloudy
4:15 AM 57.2 °F 57.2 °F 100% 29.60 in 7.0 mi Calm Calm - N/A   Scattered Clouds
4:35 AM 56.8 °F 56.8 °F 100% 29.60 in 4.0 mi Calm Calm - N/A   Scattered Clouds
4:55 AM 57.0 °F 57.0 °F 100% 29.61 in 4.0 mi Calm Calm - N/A   Scattered Clouds
5:15 AM 56.8 °F 56.8 °F 100% 29.59 in 5.0 mi Calm Calm - N/A   Mostly Cloudy
5:35 AM 56.5 °F 56.5 °F 100% 29.59 in 3.0 mi Calm Calm - N/A   Mostly Cloudy
5:55 AM 56.1 °F 56.1 °F 100% 29.59 in 2.5 mi Calm Calm - N/A   Overcast
6:15 AM 56.8 °F 56.8 °F 100% 29.59 in 2.5 mi Calm Calm - N/A   Overcast
6:35 AM 56.8 °F 56.8 °F 100% 29.56 in 3.0 mi Calm Calm - N/A   Overcast
6:55 AM 56.7 °F 56.7 °F 100% 29.59 in 1.5 mi Calm Calm - N/A   Overcast
7:15 AM 56.7 °F 56.7 °F 100% 29.59 in 1.2 mi Calm Calm - N/A   Overcast
7:35 AM 56.8 °F 56.8 °F 100% 29.59 in 0.2 mi Calm Calm - N/A Fog Fog
7:55 AM 57.0 °F 57.0 °F 100% 29.59 in 1.5 mi Calm Calm - N/A   Overcast
8:15 AM 57.2 °F 57.2 °F 100% 29.59 in 1.8 mi Calm Calm - 0.01 in Rain Light Rain
8:35 AM 57.2 °F 57.2 °F 100% 29.59 in 1.2 mi Calm Calm - 0.07 in Rain Heavy Rain
8:55 AM 57.2 °F 57.2 °F 100% 29.59 in 2.5 mi Calm Calm - 0.09 in Rain Light Rain
9:15 AM 57.6 °F 57.6 °F 100% 29.58 in 10.0 mi Calm Calm - 0.01 in Rain Light Rain
9:35 AM 58.8 °F 58.8 °F 100% 29.58 in 10.0 mi Calm Calm - 0.01 in   Mostly Cloudy
9:55 AM 59.9 °F 59.9 °F 100% 29.59 in 7.0 mi Calm Calm - 0.01 in   Overcast
10:15 AM 61.7 °F 58.6 °F 90% 29.59 in 10.0 mi WSW 6.9 mph - N/A   Overcast
10:55 AM 63.3 °F 57.9 °F 83% 29.59 in 10.0 mi West 5.8 mph 16.1 mph N/A   Scattered Clouds
11:15 AM 62.8 °F 57.6 °F 83% 29.59 in 10.0 mi WSW 6.9 mph - N/A   Mostly Cloudy
11:35 AM 64.4 °F 56.5 °F 75% 29.59 in 10.0 mi SW 8.1 mph 19.6 mph N/A   Mostly Cloudy
11:55 AM 65.3 °F 56.3 °F 73% 29.59 in 10.0 mi WSW 10.4 mph 20.7 mph N/A   Mostly Cloudy
12:15 PM 65.5 °F 55.9 °F 71% 29.58 in 10.0 mi West 6.9 mph 18.4 mph N/A   Clear
12:35 PM 66.6 °F 54.9 °F 66% 29.58 in 10.0 mi WNW 10.4 mph 18.4 mph N/A   Clear
12:55 PM 66.2 °F 54.3 °F 65% 29.58 in 10.0 mi WSW 15.0 mph 27.6 mph N/A   Clear
1:15 PM 64.9 °F 54.3 °F 68% 29.58 in 10.0 mi West 9.2 mph - N/A   Clear
1:35 PM 66.6 °F 54.1 °F 64% 29.59 in 10.0 mi WSW 8.1 mph 17.3 mph N/A   Mostly Cloudy
1:55 PM 65.1 °F 53.1 °F 65% 29.59 in 10.0 mi WSW 9.2 mph 18.4 mph N/A   Scattered Clouds
2:15 PM 65.8 °F 52.9 °F 63% 29.59 in 10.0 mi WSW 15.0 mph 19.6 mph N/A   Scattered Clouds
2:35 PM 65.7 °F 52.0 °F 61% 29.59 in 10.0 mi WSW 16.1 mph 26.5 mph N/A   Scattered Clouds
2:55 PM 67.3 °F 51.8 °F 58% 29.59 in 10.0 mi SW 11.5 mph 23.0 mph N/A   Scattered Clouds
3:15 PM 68.0 °F 52.3 °F 57% 29.59 in 10.0 mi WSW 8.1 mph - N/A   Scattered Clouds
3:35 PM 68.0 °F 51.4 °F 55% 29.59 in 10.0 mi West 6.9 mph - N/A   Scattered Clouds
3:55 PM 68.4 °F 51.3 °F 54% 29.59 in 10.0 mi SW 10.4 mph 17.3 mph N/A   Mostly Cloudy
4:15 PM 66.9 °F 50.9 °F 56% 29.59 in 10.0 mi SW 9.2 mph 16.1 mph N/A   Mostly Cloudy
4:35 PM 66.0 °F 52.0 °F 60% 29.59 in 10.0 mi SW 4.6 mph - N/A   Scattered Clouds
4:55 PM 67.1 °F 51.6 °F 57% 29.59 in 10.0 mi South 3.5 mph - N/A   Clear
5:15 PM 65.7 °F 51.4 °F 60% 29.60 in 10.0 mi South 4.6 mph - N/A   Clear
5:35 PM 63.1 °F 54.0 °F 72% 29.60 in 10.0 mi Calm Calm - N/A   Scattered Clouds
5:55 PM 58.8 °F 55.6 °F 89% 29.60 in 10.0 mi Calm Calm - N/A   Scattered Clouds
6:15 PM 58.1 °F 54.9 °F 89% 29.60 in 10.0 mi Calm Calm - N/A   Mostly Cloudy
6:35 PM 56.8 °F 54.9 °F 93% 29.61 in 10.0 mi Calm Calm - N/A   Mostly Cloudy
6:55 PM 54.9 °F 54.9 °F 100% 29.61 in 10.0 mi Calm Calm - N/A   Scattered Clouds
7:15 PM 53.8 °F 53.8 °F 100% 29.61 in 10.0 mi Calm Calm - N/A   Clear
7:35 PM 53.1 °F 53.1 °F 100% 29.62 in 10.0 mi Calm Calm - N/A   Scattered Clouds
7:55 PM 52.9 °F 52.9 °F 100% 29.62 in 10.0 mi Calm Calm - N/A   Mostly Cloudy
8:15 PM 52.0 °F 52.0 °F 100% 29.63 in 7.0 mi Calm Calm - N/A   Scattered Clouds
8:35 PM 51.3 °F 51.3 °F 100% 29.63 in 5.0 mi Calm Calm - N/A   Clear
8:55 PM 50.4 °F 50.4 °F 100% 29.63 in 4.0 mi Calm Calm - N/A   Clear
9:15 PM 49.8 °F 49.8 °F 100% 29.63 in 2.5 mi Calm Calm - N/A   Clear
9:35 PM 49.5 °F 49.5 °F 100% 29.64 in 4.0 mi Calm Calm - N/A   Clear
9:55 PM 48.7 °F 48.7 °F 100% 29.63 in 1.0 mi Calm Calm - N/A   Mostly Cloudy
10:15 PM 48.7 °F 48.7 °F 100% 29.64 in 4.0 mi Calm Calm - N/A   Scattered Clouds
10:35 PM 48.6 °F 48.6 °F 100% 29.64 in 3.0 mi Calm Calm - N/A   Clear
10:55 PM 48.4 °F 48.4 °F 100% 29.64 in 3.0 mi Calm Calm - N/A   Clear
11:15 PM 47.8 °F 47.8 °F 100% 29.64 in 1.2 mi Calm Calm - N/A   Mist
11:35 PM 46.8 °F 46.8 °F 100% 29.64 in 1.5 mi Calm Calm - N/A   Mostly Cloudy
11:55 PM 48.0 °F 48.0 °F 100% 29.64 in 4.0 mi Calm Calm - N/A   Scattered Clouds